NOAA-18
1 28654U 05018A 12046.72833972 .00000262 00000-0 16901-3 0 00758
2 28654 099.0321 003.8977 0014862 136.9382 223.2962 14.11604372347287
NOAA-19
1 33591U 09005A 12046.70876719 -.00000077 00000-0 -18299-4 0 02647
2 33591 098.8540 348.0869 0014364 011.1482 349.0006 14.11292335155734
HUBBLE
1 20580U 90037B 12046.82577986 .00001290 00000-0 83076-4 0 9449
2 20580 028.4681 224.0934 0003442 192.6736 167.3883 15.02183651996313
ISS
1 25544U 98067A 12047.97101807 .00013413 00000-0 17394-3 0 245
2 25544 051.6426 010.0328 0020654 051.7038 071.9608 15.58964144759112
CO-58
1 28895U 05043F 12047.61899627 .00000688 00000-0 15078-3 0 1006
2 28895 097.9347 279.1187 0018133 169.6628 190.4976 14.60483965335915
FALCON
1 30776U 07006E 12046.89804953 .00002857 00000-0 19163-3 0 2825
2 30776 035.4340 303.2499 0002790 001.4887 358.5838 15.06612864271795
MAST
1 31126U 07012K 12047.56346372 .00000270 00000-0 70379-4 0 3851
2 31126 097.8792 065.7619 0094583 129.2066 231.7575 14.54032341256590
CAPE1
1 31130U 07012P 12045.98039344 .00000403 00000-0 10186-3 0 03989
2 31130 097.8893 060.7413 0102538 146.4258 214.3516 14.52767013255880
COMPASS
1 32787U 08021E 12047.68147536 .00002090 00000-0 25988-3 0 2249
2 32787 097.8153 111.6630 0016532 098.7091 261.5991 14.83514019205793
AAUSAT2
1 32788U 08021F 12047.81067720 .00001958 00000-0 24228-3 0 2160
2 32788 097.8171 112.1081 0016260 097.0192 263.2889 14.83792528205835
DO-64
1 32789U 08021G 12047.69654800 .00003273 00000-0 38966-3 0 2311
2 32789 097.8271 113.5950 0016044 096.4983 263.8076 14.84944795205849
CO-66
1 32791U 08021J 12047.82930179 .00001479 00000-0 18795-3 0 2184
2 32791 097.8173 111.6375 0016849 096.7828 263.5277 14.83017591205751
RS-30
1 32953U 08025A 12047.83304171 .00000010 00000-0 00000 0 0 5286
2 32953 082.5036 010.5953 0017746 210.3256 149.6803 12.43020880169482
TACSAT-3
1 35001U 09028A 12046.57211859 .00085206 00000-0 58496-3 0 08680
2 35001 040.4482 115.5473 0006690 107.6709 252.4855 15.73597272155044
PHARMSAT
1 35002U 09028B 12047.54031043 .00047003 00000-0 46230-3 0 7971
2 35002 040.4666 113.8230 0005974 253.6730 106.3653 15.65115106155159
METEOR-M
1 35865U 09049A 12047.69026758 -.00000017 00000-0 12240-4 0 1530
2 35865 098.6716 104.2039 0003263 050.3207 309.8256 14.21855680125333
RS-38
1 35869U 09049E 12047.65851990 .00000014 00000-0 25788-4 0 1575
2 35869 098.6685 104.1867 0005342 049.9760 310.1881 14.22054344125347
JUGNU
1 37839U 11058B 12046.28181088 .00000619 00000-0 19019-3 0 00905
2 37839 019.9630 022.7870 0018856 311.3264 048.5464 14.12025143017859
SRMSAT
1 37841U 11058D 12046.94774270 .00000264 00000-0 00000-0 0 00905
2 37841 019.9738 021.2501 0012162 287.1734 072.7385 14.10114898017925
RAX-2
1 37853U 11061D 12047.92749147 .00006742 00000-0 54629-3 0 991
2 37853 101.7135 033.0097 0250927 336.2906 022.6894 14.78860318 16466
AUBIESAT
1 37854U 11061E 12046.89569174 .00007039 00000-0 56422-3 0 1003
2 37854 101.7157 031.6095 0251320 338.7205 020.3707 14.79143175 16307
HRBE
1 37855U 11061F 12047.91412398 .00007136 00000-0 57074-3 0 1005
2 37855 101.7174 033.0814 0252259 335.8281 023.1254 14.79067853 16458
RS-39
1 38051U 11062C 12047.74907715 .00007675 00000-0 34237-3 0 696
2 38051 051.6519 017.5897 0011502 328.6140 093.7832 15.22273063 3462
